Regional Weather Roundup
Issued by NWS

Home | Current Version | Previous Version | Graphics & Text | Print | Product List | Glossary On
Versions: 1 2 3 4 5 6 7 8 9 10 11 12 13 14 15 16 17 18 19 20 21 22 23 24 25 26 27 28 29 30 31 32 33 34 35 36 37 38 39 40 41 42 43 44 45 46 47 48 49 50
000
ASUS43 KIND 291559
RWRIN

WEATHER ROUNDUP FOR INDIANA
NATIONAL WEATHER SERVICE INDIANAPOLIS IN
1200 PM EDT WED MAR 29 2017

NOTE: "FAIR" INDICATES FEW OR NO CLOUDS BELOW 12,000 FEET WITH NO
SIGNIFICANT WEATHER AND/OR OBSTRUCTIONS TO VISIBILITY.

* - STATION DOES NOT REPORT WEATHER SUCH AS PRECIPITATION OR FOG.

+ - STATION NOT QUALITY CONTROLLED BY THE NATIONAL WEATHER SERVICE.
    USE DATA WITH CAUTION...ESPECIALLY DEWPOINT AND RELATIVE
    HUMIDITY OBSERVATIONS.

INZ001>003-010>013-019-020-291700-
NORTHWEST INDIANA

CITY           SKY/WX    TMP DP  RH WIND       PRES   REMARKS
GARY /AIRPORT/ PTSUNNY   46  37  71 N8        30.24F
KNOX *+        SUNNY     50  18  27 E17       30.23F
MONTICELLO +   SUNNY     49  36  59 E12G18    30.21F

$$

LMZ046-743>745-291700-
SOUTHERN LAKE MICHIGAN

STATION/POSITION TIME  TEMP    WIND        PRES    WAVE
                       AIR SEA DIR/SP/G            HT
                 (UTC) (F)     (DEG/KT/KT) (MB)    (FT)
BURNS HARBOR     1540   49      90/  9/ 11 1024.0F
MICHIGAN CITY    1530   48     100/ 11/ 14   N/A

$$

INZ004-005-014>016-021>024-291700-
NORTH CENTRAL INDIANA

CITY           SKY/WX    TMP DP  RH WIND       PRES   REMARKS
ELKHART        PTSUNNY   50  36  57 E12G17    30.26R
GOSHEN         CLOUDY    51  36  56 E15       30.25R
SOUTH BEND     MOSUNNY   50  35  56 E10       30.26R

$$

INZ006>009-017-018-025>027-291700-
NORTHEAST INDIANA

CITY           SKY/WX    TMP DP  RH WIND       PRES   REMARKS
ANGOLA *+      SUNNY     48  36  61 SE10      30.26R
FORT WAYNE     PTSUNNY   48  38  68 E12       30.26S
KENDALLVILLE + MOSUNNY   48  35  61 E12       30.26R

$$

INZ028-029-035-036-043>045-051>053-291700-
WEST CENTRAL INDIANA

CITY           SKY/WX    TMP DP  RH WIND       PRES   REMARKS
CRAWFORDSVL +  SUNNY     50  42  74 E16       30.16F
GREENCASTLE +  SUNNY     52  41  66 E15       30.16F
LAFAYETTE      SUNNY     51  38  60 E20G25    30.18F
TERRE HAUTE    CLOUDY    53  44  71 E13       30.15R

$$

INZ030>032-037>040-046>048-054>057-064-065-291700-
CENTRAL INDIANA

CITY           SKY/WX    TMP DP  RH WIND       PRES   REMARKS
COLUMBUS       SUNNY     52  45  76 E9        30.18R
INDIANAPOLIS   MOSUNNY   52  40  63 E10       30.18R
-EAGLE CREEK   SUNNY     51  40  65 E10       30.18R
KOKOMO +       CLOUDY    48  39  71 E15G22    30.24R
SHELBYVILLE    MOSUNNY   50  40  68 NE12      30.19R

$$

INZ033-034-041-042-049-050-058-059-291700-
EAST CENTRAL INDIANA

CITY           SKY/WX    TMP DP  RH WIND       PRES   REMARKS
MUNCIE         PTSUNNY   47  40  76 E15       30.22F
RICHMOND +     CLOUDY    45  37  76 E15       30.21F

$$

INZ060-061-067>069-081>083-085>088-291700-
SOUTHWEST INDIANA

CITY           SKY/WX    TMP DP  RH WIND       PRES   REMARKS
EVANSVILLE     CLOUDY    63  51  65 E10       30.13R
HUNTINGBURG *+ CLOUDY    60  51  72 E9G17     30.13R

$$

INZ062-063-066-070>080-084-089>092-291700-
SOUTH CENTRAL AND SOUTHEAST INDIANA

CITY           SKY/WX    TMP DP  RH WIND       PRES   REMARKS
BLOOMINGTON    CLOUDY    50  43  77 E13       30.15S
MADISON *+     CLOUDY    52  41  66 NE7       30.19R
SEYMOUR +      CLOUDY    52  43  71 E6        30.18R

$$




USA.gov is the U.S. government's official web portal to all federal, state and local government web resources and services.